SCP
0 0 0 0 0 0 0 0 0 0 0 0 -0 -0 -0 -0 -0 -0 0 0 0 0
0 0 0 0 0 0 0 0 0 0 0 0 0 -0 -0 -0 -0 -0 -0 -0 -0 0
0 0 0 0 0 0 0 0 0 0 0 0 0 0 0 -0 -0 -0 -0 -0 0 0
0 0 0 0 0 0 0 0 0 0 0 0 0 0 0 0 -0 -0 -0 0 -0 0
0 0 0 0 0 0 0 0 0 0 0 0 0 0 0 0 0 0 0 0 0 0
0 0 0 0 0 0 0 0 0 0 0 0 0 0 0 0 0 0 0 0 0 -0
0 0 0 0 0 0 0 0 0 0 0 0 0 0 0 0 0 0 0 0 0 0
0 0 0 0 0 0 0 0 0 0 0 0 0 0 0 0 0 0 0 0 0 0
0 0 0 0 0 0 0 0 0 0 0 0 0 0 0 0 0 0 0 0 0 0
0 0 0 0 0 0 0 0 0 0 0 0 0 0 0 0 0 0 0 0 0 0
0 0 0 0 0 0 0 0 0 0 0 0 0 0 0 0 0 0 0 0 0 0
0 0 0 0 0 0 0 0 0 0 0 0 0 0 0 0 0 0 0 0 0 0
0 0 0 0 0 0 0 0 0 0 0 0 0 0 0 0 0 0 0 0 -0 0
0 0 0 0 0 0 0 0 0 0 0 0 0 0 0 0 0 0 0 -0 -0 0
Wind_Speed_500mb
42 43 43 45 46 48 52 56 59 61 61 64 67 68 70 72 73 71 71 74 75 76
42 44 44 42 43 46 49 53 57 60 64 64 65 68 71 72 74 75 75 77 77 80
43 47 45 44 43 46 49 53 57 61 64 66 67 68 69 71 73 75 76 78 80 81
45 48 48 46 45 47 49 52 56 61 65 68 68 69 71 71 72 74 76 78 80 81
45 49 48 47 46 48 49 52 57 62 66 69 69 68 70 72 73 74 76 78 81 82
47 50 49 48 50 50 52 54 57 62 67 70 70 70 69 70 72 73 73 73 75 80
48 52 52 52 52 51 53 56 60 63 67 70 69 71 71 70 71 73 73 70 70 72
52 55 54 55 53 52 55 57 61 65 67 70 71 70 73 72 70 74 75 73 68 69
56 57 56 56 53 53 55 58 62 67 70 72 74 71 68 68 69 72 73 75 74 68
54 54 57 55 54 54 55 59 64 66 70 72 71 71 69 67 68 70 71 72 73 72
55 55 55 55 54 54 56 60 64 68 70 70 67 69 69 66 66 68 71 70 69 70
56 54 55 54 55 55 57 60 64 66 66 66 65 65 66 63 65 69 71 68 69 72
53 53 55 55 54 54 57 61 64 64 60 59 61 59 61 55 59 70 68 74 79 69
52 51 53 52 50 52 58 61 60 60 57 53 52 53 53 49 54 58 67 78 82 74
Wind_Direction_500mb
348 346 346 345 346 348 347 348 349 349 349 348 349 349 348 349 346 341 338 336 331 324
341 340 338 338 339 341 342 342 342 342 341 342 342 342 343 344 344 344 340 338 335 328
332 334 332 330 332 334 336 337 338 338 338 336 336 336 337 338 340 340 341 339 338 334
324 327 326 325 325 328 331 333 335 336 336 334 332 332 331 332 333 334 337 339 338 337
316 321 321 319 319 321 324 327 330 332 333 333 330 330 329 328 328 329 332 335 336 337
309 315 314 315 313 314 317 321 324 327 330 331 330 328 327 326 325 326 327 330 332 334
304 309 309 310 310 310 313 316 320 324 327 328 328 326 324 323 323 323 323 325 326 328
301 304 306 307 306 307 310 314 318 321 323 324 325 326 324 322 321 320 320 321 321 321
301 301 303 304 304 305 309 312 316 319 321 323 323 323 323 320 318 318 319 320 320 319
300 299 301 300 302 304 307 310 314 317 319 321 321 321 322 320 317 316 316 319 320 318
300 299 298 298 300 302 304 308 313 316 319 319 321 321 321 321 317 315 315 319 318 319
295 294 294 296 297 299 303 309 312 316 319 320 321 321 321 322 319 316 318 317 320 321
290 287 289 293 296 300 305 310 313 315 319 321 320 321 322 325 323 320 323 321 320 322
288 283 286 291 294 300 306 308 311 314 316 318 319 322 322 327 322 327 327 319 321 325
Wind_Speed_850mb
42 43 43 45 46 48 52 56 59 61 61 64 67 68 70 72 73 71 71 74 75 76
42 44 44 42 43 46 49 53 57 60 64 64 65 68 71 72 74 75 75 77 77 80
43 47 45 44 43 46 49 53 57 61 64 66 67 68 69 71 73 75 76 78 80 81
45 48 48 46 45 47 49 52 56 61 65 68 68 69 71 71 72 74 76 78 80 81
45 49 48 47 46 48 49 52 57 62 66 69 69 68 70 72 73 74 76 78 81 82
47 50 49 48 50 50 52 54 57 62 67 70 70 70 69 70 72 73 73 73 75 80
48 52 52 52 52 51 53 56 60 63 67 70 69 71 71 70 71 73 73 70 70 72
52 55 54 55 53 52 55 57 61 65 67 70 71 70 73 72 70 74 75 73 68 69
56 57 56 56 53 53 55 58 62 67 70 72 74 71 68 68 69 72 73 75 74 68
54 54 57 55 54 54 55 59 64 66 70 72 71 71 69 67 68 70 71 72 73 72
55 55 55 55 54 54 56 60 64 68 70 70 67 69 69 66 66 68 71 70 69 70
56 54 55 54 55 55 57 60 64 66 66 66 65 65 66 63 65 69 71 68 69 72
53 53 55 55 54 54 57 61 64 64 60 59 61 59 61 55 59 70 68 74 79 69
52 51 53 52 50 52 58 61 60 60 57 53 52 53 53 49 54 58 67 78 82 74
Wind_Direction_850mb
348 346 346 345 346 348 347 348 349 349 349 348 349 349 348 349 346 341 338 336 331 324
341 340 338 338 339 341 342 342 342 342 341 342 342 342 343 344 344 344 340 338 335 328
332 334 332 330 332 334 336 337 338 338 338 336 336 336 337 338 340 340 341 339 338 334
324 327 326 325 325 328 331 333 335 336 336 334 332 332 331 332 333 334 337 339 338 337
316 321 321 319 319 321 324 327 330 332 333 333 330 330 329 328 328 329 332 335 336 337
309 315 314 315 313 314 317 321 324 327 330 331 330 328 327 326 325 326 327 330 332 334
304 309 309 310 310 310 313 316 320 324 327 328 328 326 324 323 323 323 323 325 326 328
301 304 306 307 306 307 310 314 318 321 323 324 325 326 324 322 321 320 320 321 321 321
301 301 303 304 304 305 309 312 316 319 321 323 323 323 323 320 318 318 319 320 320 319
300 299 301 300 302 304 307 310 314 317 319 321 321 321 322 320 317 316 316 319 320 318
300 299 298 298 300 302 304 308 313 316 319 319 321 321 321 321 317 315 315 319 318 319
295 294 294 296 297 299 303 309 312 316 319 320 321 321 321 322 319 316 318 317 320 321
290 287 289 293 296 300 305 310 313 315 319 321 320 321 322 325 323 320 323 321 320 322
288 283 286 291 294 300 306 308 311 314 316 318 319 322 322 327 322 327 327 319 321 325